This is the latest recevied weather packets stored in our database for station/object PA3CPS. If no packets are shown the sender has not sent any weather packets the latest 1 day(s).
| Time | Temp. | Humidity | Pressure | Rain* | Wind** | Luminosity | Snow |
|---|---|---|---|---|---|---|---|
| 1778009464 | 10.56° C | 84% | 1009.5 hPa | 0 mm | 2.68 m/s, 357° | 0 W/m² | - |
| 1778009162 | 10.56° C | 84% | 1009.4 hPa | 0 mm | 2.68 m/s, 3° | 0 W/m² | - |
| 1778008863 | 10.56° C | 84% | 1009.4 hPa | 0 mm | 2.24 m/s, 357° | 0 W/m² | - |
| 1778008563 | 10.56° C | 84% | 1009.3 hPa | 0 mm | 3.58 m/s, 352° | 0 W/m² | - |
| 1778008262 | 10.56° C | 85% | 1009.3 hPa | 0 mm | 2.68 m/s, 326° | 0 W/m² | - |
| 1778007963 | 10.56° C | 85% | 1009.2 hPa | 0 mm | 2.24 m/s, 322° | 0 W/m² | - |
| 1778007662 | 10.56° C | 85% | 1009.2 hPa | 0 mm | 2.24 m/s, 343° | 0 W/m² | - |
| 1778007363 | 10.56° C | 85% | 1009.3 hPa | 0 mm | 2.68 m/s, 23° | 0 W/m² | - |
| 1778007062 | 10.56° C | 85% | 1009.3 hPa | 0 mm | 2.68 m/s, 18° | 0 W/m² | - |
| 1778006764 | 10.56° C | 85% | 1009.2 hPa | 0 mm | 2.68 m/s, 349° | 0 W/m² | - |
| 1778006463 | 10.56° C | 85% | 1009.2 hPa | 0 mm | 2.68 m/s, 9° | 7 W/m² | - |
| 1778006162 | 11.11° C | 84% | 1009.2 hPa | 0 mm | 2.68 m/s, 20° | 11 W/m² | - |
| 1778005862 | 11.11° C | 84% | 1009.2 hPa | 0 mm | 3.13 m/s, 355° | 12 W/m² | - |
| 1778005562 | 11.11° C | 84% | 1009.2 hPa | 0 mm | 3.13 m/s, 350° | 14 W/m² | - |
| 1778005262 | 11.11° C | 85% | 1009.1 hPa | 0 mm | 2.68 m/s, 21° | 16 W/m² | - |
| 1778004962 | 11.11° C | 85% | 1009.1 hPa | 0 mm | 2.24 m/s, 339° | 16 W/m² | - |
| 1778004663 | 11.11° C | 85% | 1009.1 hPa | 0 mm | 3.13 m/s, 343° | 18 W/m² | - |
| 1778004363 | 11.11° C | 85% | 1009.2 hPa | 0 mm | 3.13 m/s, 342° | 23 W/m² | - |
| 1778004066 | 11.11° C | 84% | 1009.1 hPa | 0 mm | 3.13 m/s, 1° | 25 W/m² | - |
| 1778003762 | 11.11° C | 84% | 1009.1 hPa | 0 mm | 3.58 m/s, 36° | 26 W/m² | - |
| 1778003463 | 11.11° C | 84% | 1009.3 hPa | 0 mm | 2.24 m/s, 348° | 23 W/m² | - |
| 1778003162 | 11.11° C | 84% | 1009.2 hPa | 0 mm | 3.58 m/s, 6° | 21 W/m² | - |
| 1778002863 | 11.11° C | 84% | 1009.3 hPa | 0 mm | 3.13 m/s, 14° | 25 W/m² | - |
| 1778002562 | 11.67° C | 84% | 1009.3 hPa | 0 mm | 3.58 m/s, 312° | 25 W/m² | - |
| 1778002262 | 11.67° C | 84% | 1009.1 hPa | 0 mm | 3.13 m/s, 309° | 26 W/m² | - |
* Rain latest hour (hover to see other rain measurements)
** Current wind speed in m/s (hover to see current wind gust speed)